sat.trackr.live / text

‹ back to catalog

STARLINK-32937

NORAD 63148 · 2025-043S

PAYLOAD ACTIVE UNKNOWN

§ Identity

Operator
Country
US
Launch date
2025-03-03
Launch site
AFETR
Launch vehicle
Mass (kg)
RCS (m²)

Purposes: comms

External: N2YO · Heavens-Above · Gunter

§ Orbital elements

Epoch: 2026-09-20T22:29:49.679520Z

Period
94.27 min
Inclination
43.0024°
Eccentricity
0.0002358
Mean motion
15.27599557 rev/d
Perigee alt
481.4 km
Apogee alt
484.6 km
Semi-major
6,861.1 km
B*
6.3259e-4
RAAN
353.5148°
Arg perigee
268.6015°
Mean anomaly
91.4566°
Rev number
8,722

§ Raw data

STARLINK-329371 63148U 25043S   26263.93738055  .00017197  00000+0  63259-3 0  99972 63148  43.0024 353.5148 0002358 268.6015  91.4566 15.27599557 87227

JSON: /api/v1/satellites/63148 · /tle

For live sub-satellite position, see the globe view (requires WebGL).

§ Visibility from observer

Set your observer location to see the next 7 days of passes ≥ 10°. The values pass through the URL so the page stays shareable.

No JS? Fill the form by hand. The geolocation button needs JavaScript.